Time,TemperatureF,DewpointF,PressureIn,WindDirection,WindDirectionDegrees,WindSpeedMPH,WindSpeedGustMPH,Humidity,HourlyPrecipIn,Conditions,Clouds,dailyrainin,SoftwareType,DateUTC
2013-12-02 00:00:00,40.6,27.8,29.70,West,270,0.0,14.0,60,0.00,,,0.00,Wunderground v.1.13,2013-12-02 07:00:00,
2013-12-02 00:05:00,40.6,28.2,29.70,West,261,1.0,1.0,61,0.00,,,0.00,Wunderground v.1.13,2013-12-02 07:05:00,
2013-12-02 00:10:00,40.5,27.7,29.70,WSW,244,1.0,14.0,60,0.00,,,0.00,Wunderground v.1.13,2013-12-02 07:10:00,
2013-12-02 00:15:00,40.6,27.8,29.70,West,273,1.0,1.0,60,0.00,,,0.00,Wunderground v.1.13,2013-12-02 07:15:00,
2013-12-02 00:20:00,40.5,27.7,29.70,West,259,0.0,14.0,60,0.00,,,0.00,Wunderground v.1.13,2013-12-02 07:20:00,
2013-12-02 00:25:00,40.3,27.5,29.70,West,277,0.0,14.0,60,0.00,,,0.00,Wunderground v.1.13,2013-12-02 07:25:00,
2013-12-02 00:30:00,40.2,27.8,29.68,West,265,0.0,14.0,61,0.00,,,0.00,Wunderground v.1.13,2013-12-02 07:30:00,
2013-12-02 00:40:00,39.6,27.2,29.68,West,271,0.0,14.0,61,0.00,,,0.00,Wunderground v.1.13,2013-12-02 07:40:00,
2013-12-02 00:45:00,39.5,27.2,29.68,West,265,0.0,14.0,61,0.00,,,0.00,Wunderground v.1.13,2013-12-02 07:45:00,
2013-12-02 00:50:00,39.3,27.0,29.68,West,265,0.0,14.0,61,0.00,,,0.00,Wunderground v.1.13,2013-12-02 07:50:00,
2013-12-02 00:55:00,39.2,27.3,29.68,West,265,0.0,14.0,62,0.00,,,0.00,Wunderground v.1.13,2013-12-02 07:55:00,
2013-12-02 00:59:00,38.9,27.0,29.68,West,265,0.0,14.0,62,0.00,,,0.00,Wunderground v.1.13,2013-12-02 07:59:00,
2013-12-02 01:04:00,38.8,26.9,29.68,West,265,0.0,14.0,62,0.00,,,0.00,Wunderground v.1.13,2013-12-02 08:04:00,
2013-12-02 01:10:00,38.6,26.7,29.68,West,265,0.0,14.0,62,0.00,,,0.00,Wunderground v.1.13,2013-12-02 08:10:00,
2013-12-02 01:20:00,38.6,26.7,29.68,WSW,248,0.0,14.0,62,0.00,,,0.00,Wunderground v.1.13,2013-12-02 08:20:00,
2013-12-02 01:25:00,38.5,26.6,29.68,WSW,247,0.0,14.0,62,0.00,,,0.00,Wunderground v.1.13,2013-12-02 08:25:00,
2013-12-02 01:30:00,38.3,26.4,29.68,WSW,251,0.0,14.0,62,0.00,,,0.00,Wunderground v.1.13,2013-12-02 08:30:00,
2013-12-02 01:35:00,38.3,26.4,29.68,West,261,0.0,14.0,62,0.00,,,0.00,Wunderground v.1.13,2013-12-02 08:35:00,
2013-12-02 01:40:00,38.3,26.4,29.68,West,261,0.0,14.0,62,0.00,,,0.00,Wunderground v.1.13,2013-12-02 08:40:00,
2013-12-02 01:44:00,38.2,26.3,29.68,West,261,0.0,14.0,62,0.00,,,0.00,Wunderground v.1.13,2013-12-02 08:44:00,
2013-12-02 01:49:00,38.0,26.1,29.68,West,261,0.0,14.0,62,0.00,,,0.00,Wunderground v.1.13,2013-12-02 08:49:00,
2013-12-02 01:55:00,38.0,26.1,29.68,West,261,0.0,14.0,62,0.00,,,0.00,Wunderground v.1.13,2013-12-02 08:55:00,
2013-12-02 02:00:00,37.9,26.0,29.68,West,261,0.0,14.0,62,0.00,,,0.00,Wunderground v.1.13,2013-12-02 09:00:00,
2013-12-02 02:05:00,37.8,25.9,29.68,West,261,0.0,14.0,62,0.00,,,0.00,Wunderground v.1.13,2013-12-02 09:05:00,
2013-12-02 02:10:00,37.6,25.7,29.68,West,261,0.0,14.0,62,0.00,,,0.00,Wunderground v.1.13,2013-12-02 09:10:00,
2013-12-02 02:15:00,37.2,25.8,29.67,West,261,0.0,14.0,63,0.00,,,0.00,Wunderground v.1.13,2013-12-02 09:15:00,
2013-12-02 02:20:00,36.8,25.8,29.67,West,261,0.0,14.0,64,0.00,,,0.00,Wunderground v.1.13,2013-12-02 09:20:00,
2013-12-02 02:25:00,36.3,25.3,29.67,West,261,0.0,14.0,64,0.00,,,0.00,Wunderground v.1.13,2013-12-02 09:25:00,
2013-12-02 02:30:00,35.8,25.2,29.66,West,261,0.0,14.0,65,0.00,,,0.00,Wunderground v.1.13,2013-12-02 09:30:00,
2013-12-02 02:35:00,35.2,25.0,29.66,West,261,0.0,14.0,66,0.00,,,0.00,Wunderground v.1.13,2013-12-02 09:35:00,
2013-12-02 02:40:00,34.9,25.0,29.66,West,261,0.0,14.0,67,0.00,,,0.00,Wunderground v.1.13,2013-12-02 09:40:00,
2013-12-02 02:45:00,34.7,25.2,29.65,West,261,0.0,14.0,68,0.00,,,0.00,Wunderground v.1.13,2013-12-02 09:45:00,
2013-12-02 02:50:00,34.9,25.0,29.65,West,261,0.0,14.0,67,0.00,,,0.00,Wunderground v.1.13,2013-12-02 09:50:00,
2013-12-02 02:55:00,34.6,24.8,29.65,West,261,0.0,14.0,67,0.00,,,0.00,Wunderground v.1.13,2013-12-02 09:55:00,
2013-12-02 03:00:00,34.4,24.9,29.64,West,262,0.0,14.0,68,0.00,,,0.00,Wunderground v.1.13,2013-12-02 10:00:00,
2013-12-02 03:05:00,34.6,25.1,29.64,West,262,0.0,14.0,68,0.00,,,0.00,Wunderground v.1.13,2013-12-02 10:05:00,
2013-12-02 03:10:00,34.7,25.2,29.64,West,262,0.0,14.0,68,0.00,,,0.00,Wunderground v.1.13,2013-12-02 10:10:00,
2013-12-02 03:15:00,34.6,25.1,29.64,West,262,0.0,14.0,68,0.00,,,0.00,Wunderground v.1.13,2013-12-02 10:15:00,
2013-12-02 03:20:00,34.4,25.3,29.64,West,262,0.0,14.0,69,0.00,,,0.00,Wunderground v.1.13,2013-12-02 10:20:00,
2013-12-02 03:25:00,34.3,25.2,29.64,West,262,0.0,14.0,69,0.00,,,0.00,Wunderground v.1.13,2013-12-02 10:25:00,
2013-12-02 03:35:00,34.1,25.3,29.63,West,262,0.0,14.0,70,0.00,,,0.00,Wunderground v.1.13,2013-12-02 10:35:00,
2013-12-02 03:45:00,33.5,25.1,29.63,West,262,0.0,14.0,71,0.00,,,0.00,Wunderground v.1.13,2013-12-02 10:45:00,
2013-12-02 03:50:00,33.5,25.1,29.63,West,262,0.0,14.0,71,0.00,,,0.00,Wunderground v.1.13,2013-12-02 10:50:00,
2013-12-02 03:55:00,33.4,25.3,29.63,West,262,0.0,14.0,72,0.00,,,0.00,Wunderground v.1.13,2013-12-02 10:55:00,
2013-12-02 04:00:00,33.5,25.4,29.63,West,262,0.0,14.0,72,0.00,,,0.00,Wunderground v.1.13,2013-12-02 11:00:00,
2013-12-02 04:05:00,33.5,25.4,29.63,West,262,0.0,14.0,72,0.00,,,0.00,Wunderground v.1.13,2013-12-02 11:05:00,
2013-12-02 04:10:00,33.4,25.7,29.63,West,262,0.0,14.0,73,0.00,,,0.00,Wunderground v.1.13,2013-12-02 11:10:00,
2013-12-02 04:15:00,33.2,25.5,29.62,West,262,0.0,14.0,73,0.00,,,0.00,Wunderground v.1.13,2013-12-02 11:15:00,
2013-12-02 04:20:00,33.2,25.5,29.62,West,262,0.0,14.0,73,0.00,,,0.00,Wunderground v.1.13,2013-12-02 11:20:00,
2013-12-02 04:25:00,33.1,25.7,29.62,West,262,0.0,14.0,74,0.00,,,0.00,Wunderground v.1.13,2013-12-02 11:25:00,
2013-12-02 04:30:00,32.8,25.4,29.63,West,262,0.0,14.0,74,0.00,,,0.00,Wunderground v.1.13,2013-12-02 11:30:00,
2013-12-02 04:35:00,32.5,25.5,29.63,West,262,0.0,14.0,75,0.00,,,0.00,Wunderground v.1.13,2013-12-02 11:35:00,
2013-12-02 04:40:00,32.4,25.4,29.63,West,262,0.0,14.0,75,0.00,,,0.00,Wunderground v.1.13,2013-12-02 11:40:00,
2013-12-02 04:50:00,32.2,25.5,29.62,West,262,0.0,14.0,76,0.00,,,0.00,Wunderground v.1.13,2013-12-02 11:50:00,
2013-12-02 04:55:00,32.2,25.8,29.62,West,262,0.0,14.0,77,0.00,,,0.00,Wunderground v.1.13,2013-12-02 11:55:00,
2013-12-02 05:00:00,32.1,25.7,29.61,West,262,0.0,14.0,77,0.00,,,0.00,Wunderground v.1.13,2013-12-02 12:00:00,
2013-12-02 05:10:00,31.8,25.4,29.61,West,262,0.0,14.0,77,0.00,,,0.00,Wunderground v.1.13,2013-12-02 12:10:00,
2013-12-02 05:14:00,31.6,25.5,29.61,West,262,0.0,14.0,78,0.00,,,0.00,Wunderground v.1.13,2013-12-02 12:14:00,
2013-12-02 05:19:00,31.6,25.5,29.61,West,262,0.0,14.0,78,0.00,,,0.00,Wunderground v.1.13,2013-12-02 12:19:00,
2013-12-02 05:24:00,31.5,25.7,29.61,West,262,0.0,14.0,79,0.00,,,0.00,Wunderground v.1.13,2013-12-02 12:24:00,
2013-12-02 05:30:00,31.5,25.7,29.60,West,262,0.0,14.0,79,0.00,,,0.00,Wunderground v.1.13,2013-12-02 12:30:00,
2013-12-02 05:35:00,31.3,25.8,29.60,West,262,0.0,14.0,80,0.00,,,0.00,Wunderground v.1.13,2013-12-02 12:35:00,
2013-12-02 05:45:00,31.5,26.0,29.60,West,262,0.0,14.0,80,0.00,,,0.00,Wunderground v.1.13,2013-12-02 12:45:00,
2013-12-02 05:50:00,31.6,26.4,29.60,West,262,0.0,14.0,81,0.00,,,0.00,Wunderground v.1.13,2013-12-02 12:50:00,
2013-12-02 05:55:00,31.9,26.7,29.60,West,262,0.0,14.0,81,0.00,,,0.00,Wunderground v.1.13,2013-12-02 12:55:00,
2013-12-02 06:00:00,32.1,26.9,29.60,West,262,0.0,14.0,81,0.00,,,0.00,Wunderground v.1.13,2013-12-02 13:00:00,
2013-12-02 06:05:00,32.7,27.5,29.60,West,262,0.0,14.0,81,0.00,,,0.00,Wunderground v.1.13,2013-12-02 13:05:00,
2013-12-02 06:10:00,33.2,27.7,29.60,West,262,0.0,14.0,80,0.00,,,0.00,Wunderground v.1.13,2013-12-02 13:10:00,
2013-12-02 06:15:00,33.7,28.2,29.60,West,262,0.0,14.0,80,0.00,,,0.00,Wunderground v.1.13,2013-12-02 13:15:00,
2013-12-02 06:20:00,34.4,28.6,29.60,West,262,0.0,14.0,79,0.00,,,0.00,Wunderground v.1.13,2013-12-02 13:20:00,
2013-12-02 06:25:00,34.9,28.4,29.60,West,262,0.0,14.0,77,0.00,,,0.00,Wunderground v.1.13,2013-12-02 13:25:00,
2013-12-02 06:30:00,34.7,27.9,29.59,West,262,0.0,14.0,76,0.00,,,0.00,Wunderground v.1.13,2013-12-02 13:30:00,
2013-12-02 06:35:00,34.6,27.8,29.59,West,262,0.0,14.0,76,0.00,,,0.00,Wunderground v.1.13,2013-12-02 13:35:00,
2013-12-02 06:40:00,34.3,27.5,29.59,West,262,0.0,14.0,76,0.00,,,0.00,Wunderground v.1.13,2013-12-02 13:40:00,
2013-12-02 06:44:00,33.7,26.9,29.59,West,262,0.0,14.0,76,0.00,,,0.00,Wunderground v.1.13,2013-12-02 13:44:00,
2013-12-02 06:49:00,33.8,27.7,29.59,West,262,0.0,14.0,78,0.00,,,0.00,Wunderground v.1.13,2013-12-02 13:49:00,
2013-12-02 06:55:00,34.1,27.6,29.59,West,262,0.0,14.0,77,0.00,,,0.00,Wunderground v.1.13,2013-12-02 13:55:00,
2013-12-02 07:00:00,34.1,27.6,29.58,West,263,0.0,14.0,77,0.00,,,0.00,Wunderground v.1.13,2013-12-02 14:00:00,
2013-12-02 07:04:00,34.1,28.0,29.58,West,263,0.0,14.0,78,0.00,,,0.00,Wunderground v.1.13,2013-12-02 14:04:00,
2013-12-02 07:09:00,34.3,28.2,29.58,West,263,0.0,14.0,78,0.00,,,0.00,Wunderground v.1.13,2013-12-02 14:09:00,
2013-12-02 07:14:00,34.1,28.0,29.57,West,263,0.0,14.0,78,0.00,,,0.00,Wunderground v.1.13,2013-12-02 14:14:00,
2013-12-02 07:19:00,34.1,28.0,29.57,West,263,0.0,14.0,78,0.00,,,0.00,Wunderground v.1.13,2013-12-02 14:19:00,
2013-12-02 07:25:00,34.1,28.3,29.57,West,263,0.0,14.0,79,0.00,,,0.00,Wunderground v.1.13,2013-12-02 14:25:00,
2013-12-02 07:30:00,34.4,28.2,29.57,West,263,0.0,14.0,78,0.00,,,0.00,Wunderground v.1.13,2013-12-02 14:30:00,
2013-12-02 07:35:00,34.4,28.2,29.57,West,262,0.0,14.0,78,0.00,,,0.00,Wunderground v.1.13,2013-12-02 14:35:00,
2013-12-02 07:40:00,34.6,28.4,29.57,West,262,0.0,14.0,78,0.00,,,0.00,Wunderground v.1.13,2013-12-02 14:40:00,
2013-12-02 07:45:00,34.6,28.8,29.57,West,262,0.0,14.0,79,0.00,,,0.00,Wunderground v.1.13,2013-12-02 14:45:00,
2013-12-02 07:50:00,35.3,29.7,29.57,WSW,250,0.0,14.0,80,0.00,,,0.00,Wunderground v.1.13,2013-12-02 14:50:00,
2013-12-02 07:55:00,37.3,30.4,29.57,WNW,285,0.0,14.0,76,0.00,,,0.00,Wunderground v.1.13,2013-12-02 14:55:00,
2013-12-02 08:04:00,39.2,30.6,29.57,WNW,289,0.0,14.0,71,0.00,,,0.00,Wunderground v.1.13,2013-12-02 15:04:00,
2013-12-02 08:10:00,39.8,30.8,29.57,WNW,289,0.0,14.0,70,0.00,,,0.00,Wunderground v.1.13,2013-12-02 15:10:00,
2013-12-02 08:20:00,41.2,31.1,29.57,NW,306,0.0,14.0,67,0.00,,,0.00,Wunderground v.1.13,2013-12-02 15:20:00,
2013-12-02 08:25:00,41.6,31.1,29.57,NW,306,0.0,14.0,66,0.00,,,0.00,Wunderground v.1.13,2013-12-02 15:25:00,
2013-12-02 08:30:00,42.1,31.6,29.57,NW,306,0.0,14.0,66,0.00,,,0.00,Wunderground v.1.13,2013-12-02 15:30:00,
2013-12-02 08:35:00,42.3,31.4,29.57,NW,306,0.0,14.0,65,0.00,,,0.00,Wunderground v.1.13,2013-12-02 15:35:00,
2013-12-02 08:40:00,42.3,31.4,29.57,NW,306,0.0,14.0,65,0.00,,,0.00,Wunderground v.1.13,2013-12-02 15:40:00,
2013-12-02 08:44:00,42.5,31.6,29.57,NW,306,0.0,14.0,65,0.00,,,0.00,Wunderground v.1.13,2013-12-02 15:44:00,
2013-12-02 08:49:00,42.8,31.5,29.57,NW,306,0.0,14.0,64,0.00,,,0.00,Wunderground v.1.13,2013-12-02 15:49:00,
2013-12-02 08:55:00,43.1,31.4,29.57,NW,306,0.0,14.0,63,0.00,,,0.00,Wunderground v.1.13,2013-12-02 15:55:00,
2013-12-02 09:00:00,43.5,31.7,29.57,NW,306,0.0,14.0,63,0.00,,,0.00,Wunderground v.1.13,2013-12-02 16:00:00,
2013-12-02 09:05:00,43.8,31.6,29.57,NW,306,0.0,14.0,62,0.00,,,0.00,Wunderground v.1.13,2013-12-02 16:05:00,
2013-12-02 09:10:00,44.2,31.6,29.57,NW,306,0.0,14.0,61,0.00,,,0.00,Wunderground v.1.13,2013-12-02 16:10:00,
2013-12-02 09:15:00,44.5,31.5,29.56,NW,306,0.0,14.0,60,0.00,,,0.00,Wunderground v.1.13,2013-12-02 16:15:00,
2013-12-02 09:20:00,45.1,32.0,29.56,WNW,298,0.0,14.0,60,0.00,,,0.00,Wunderground v.1.13,2013-12-02 16:20:00,
2013-12-02 09:25:00,45.5,31.6,29.56,WNW,298,0.0,14.0,58,0.00,,,0.00,Wunderground v.1.13,2013-12-02 16:25:00,
2013-12-02 09:30:00,46.0,32.0,29.55,WNW,298,0.0,14.0,58,0.00,,,0.00,Wunderground v.1.13,2013-12-02 16:30:00,
2013-12-02 09:40:00,46.8,31.9,29.55,WNW,295,0.0,14.0,56,0.00,,,0.00,Wunderground v.1.13,2013-12-02 16:40:00,
2013-12-02 09:45:00,47.1,32.2,29.55,WNW,295,0.0,14.0,56,0.00,,,0.00,Wunderground v.1.13,2013-12-02 16:45:00,
2013-12-02 09:50:00,47.3,32.4,29.55,West,281,0.0,14.0,56,0.00,,,0.00,Wunderground v.1.13,2013-12-02 16:50:00,
2013-12-02 09:55:00,47.4,32.5,29.55,WSW,253,0.0,14.0,56,0.00,,,0.00,Wunderground v.1.13,2013-12-02 16:55:00,
2013-12-02 09:59:00,47.9,32.9,29.55,WSW,254,0.0,14.0,56,0.00,,,0.00,Wunderground v.1.13,2013-12-02 16:59:00,
2013-12-02 10:04:00,48.3,32.4,29.55,WSW,254,0.0,14.0,54,0.00,,,0.00,Wunderground v.1.13,2013-12-02 17:04:00,
2013-12-02 10:10:00,48.8,32.9,29.55,WSW,254,0.0,14.0,54,0.00,,,0.00,Wunderground v.1.13,2013-12-02 17:10:00,
2013-12-02 10:15:00,49.4,33.0,29.53,WNW,283,0.0,14.0,53,0.00,,,0.00,Wunderground v.1.13,2013-12-02 17:15:00,
2013-12-02 10:20:00,50.4,32.9,29.53,West,280,1.0,1.0,51,0.00,,,0.00,Wunderground v.1.13,2013-12-02 17:20:00,
2013-12-02 10:25:00,51.1,33.6,29.53,WSW,244,1.0,1.0,51,0.00,,,0.00,Wunderground v.1.13,2013-12-02 17:25:00,
2013-12-02 10:30:00,51.7,33.6,29.52,West,259,1.0,1.0,50,0.00,,,0.00,Wunderground v.1.13,2013-12-02 17:30:00,
2013-12-02 10:40:00,52.8,33.6,29.52,WSW,245,2.0,14.0,48,0.00,,,0.00,Wunderground v.1.13,2013-12-02 17:40:00,
2013-12-02 10:45:00,53.9,31.9,29.51,WSW,247,6.0,16.0,43,0.00,,,0.00,Wunderground v.1.13,2013-12-02 17:45:00,
2013-12-02 10:50:00,55.1,32.4,29.51,WSW,257,7.0,7.0,42,0.00,,,0.00,Wunderground v.1.13,2013-12-02 17:50:00,
2013-12-02 10:59:00,56.3,31.6,29.51,SW,232,6.0,14.0,39,0.00,,,0.00,Wunderground v.1.13,2013-12-02 17:59:00,
2013-12-02 11:04:00,56.5,31.8,29.50,West,280,8.0,8.0,39,0.00,,,0.00,Wunderground v.1.13,2013-12-02 18:04:00,
2013-12-02 11:09:00,56.7,32.0,29.50,West,275,7.0,7.0,39,0.00,,,0.00,Wunderground v.1.13,2013-12-02 18:09:00,
2013-12-02 11:14:00,56.9,31.5,29.50,WNW,288,6.0,6.0,38,0.00,,,0.00,Wunderground v.1.13,2013-12-02 18:14:00,
2013-12-02 11:20:00,57.2,31.8,29.50,SW,225,5.0,14.0,38,0.00,,,0.00,Wunderground v.1.13,2013-12-02 18:20:00,
2013-12-02 11:25:00,57.3,31.9,29.50,WSW,238,6.0,6.0,38,0.00,,,0.00,Wunderground v.1.13,2013-12-02 18:25:00,
2013-12-02 11:30:00,57.6,31.5,29.49,WSW,239,6.0,6.0,37,0.00,,,0.00,Wunderground v.1.13,2013-12-02 18:30:00,
2013-12-02 11:35:00,58.0,31.8,29.49,West,270,6.0,6.0,37,0.00,,,0.00,Wunderground v.1.13,2013-12-02 18:35:00,
2013-12-02 11:40:00,58.3,31.4,29.49,West,265,5.0,5.0,36,0.00,,,0.00,Wunderground v.1.13,2013-12-02 18:40:00,
2013-12-02 11:50:00,58.7,31.8,29.48,West,278,3.0,3.0,36,0.00,,,0.00,Wunderground v.1.13,2013-12-02 18:50:00,
2013-12-02 12:00:00,58.9,31.3,29.47,WNW,282,4.0,4.0,35,0.00,,,0.00,Wunderground v.1.13,2013-12-02 19:00:00,
2013-12-02 12:05:00,59.0,31.4,29.47,WNW,294,2.0,2.0,35,0.00,,,0.00,Wunderground v.1.13,2013-12-02 19:05:00,
2013-12-02 12:10:00,59.3,30.9,29.47,WNW,288,1.0,14.0,34,0.00,,,0.00,Wunderground v.1.13,2013-12-02 19:10:00,
2013-12-02 12:15:00,59.5,31.8,29.45,WNW,283,2.0,14.0,35,0.00,,,0.00,Wunderground v.1.13,2013-12-02 19:15:00,
2013-12-02 12:20:00,59.8,32.1,29.45,NW,315,2.0,2.0,35,0.00,,,0.00,Wunderground v.1.13,2013-12-02 19:20:00,
2013-12-02 12:25:00,59.9,31.4,29.45,NW,307,3.0,3.0,34,0.00,,,0.00,Wunderground v.1.13,2013-12-02 19:25:00,
2013-12-02 12:30:00,60.1,31.6,29.45,NW,304,3.0,14.0,34,0.00,,,0.00,Wunderground v.1.13,2013-12-02 19:30:00,
2013-12-02 12:35:00,60.1,31.6,29.45,WNW,300,3.0,14.0,34,0.00,,,0.00,Wunderground v.1.13,2013-12-02 19:35:00,
2013-12-02 12:39:00,60.4,31.9,29.45,NW,308,4.0,4.0,34,0.00,,,0.00,Wunderground v.1.13,2013-12-02 19:39:00,
2013-12-02 12:45:00,60.7,30.6,29.44,NW,316,4.0,14.0,32,0.00,,,0.00,Wunderground v.1.13,2013-12-02 19:45:00,
2013-12-02 12:50:00,60.7,29.9,29.44,NW,306,5.0,5.0,31,0.00,,,0.00,Wunderground v.1.13,2013-12-02 19:50:00,
2013-12-02 12:55:00,61.2,29.5,29.44,NW,323,5.0,5.0,30,0.00,,,0.00,Wunderground v.1.13,2013-12-02 19:55:00,
2013-12-02 13:00:00,61.6,29.0,29.43,WNW,301,6.0,14.0,29,0.00,,,0.00,Wunderground v.1.13,2013-12-02 20:00:00,
2013-12-02 13:05:00,61.8,29.2,29.43,NW,304,7.0,7.0,29,0.00,,,0.00,Wunderground v.1.13,2013-12-02 20:05:00,
2013-12-02 13:09:00,62.0,29.3,29.43,NW,306,7.0,14.0,29,0.00,,,0.00,Wunderground v.1.13,2013-12-02 20:09:00,
2013-12-02 13:15:00,62.3,29.6,29.43,NW,306,7.0,7.0,29,0.00,,,0.00,Wunderground v.1.13,2013-12-02 20:15:00,
2013-12-02 13:20:00,62.3,28.7,29.43,WNW,295,8.0,8.0,28,0.00,,,0.00,Wunderground v.1.13,2013-12-02 20:20:00,
2013-12-02 13:25:00,62.6,29.0,29.43,WNW,287,7.0,7.0,28,0.00,,,0.00,Wunderground v.1.13,2013-12-02 20:25:00,
2013-12-02 13:30:00,62.9,29.3,29.42,WNW,301,5.0,14.0,28,0.00,,,0.00,Wunderground v.1.13,2013-12-02 20:30:00,
2013-12-02 13:35:00,62.7,29.1,29.42,WNW,283,6.0,14.0,28,0.00,,,0.00,Wunderground v.1.13,2013-12-02 20:35:00,
2013-12-02 13:40:00,62.6,29.0,29.42,NW,307,7.0,7.0,28,0.00,,,0.00,Wunderground v.1.13,2013-12-02 20:40:00,
2013-12-02 13:45:00,62.4,28.8,29.41,WNW,294,8.0,8.0,28,0.00,,,0.00,Wunderground v.1.13,2013-12-02 20:45:00,
2013-12-02 13:50:00,62.6,28.1,29.41,NW,322,8.0,14.0,27,0.00,,,0.00,Wunderground v.1.13,2013-12-02 20:50:00,
2013-12-02 13:55:00,63.1,27.6,29.41,NW,315,9.0,14.0,26,0.00,,,0.00,Wunderground v.1.13,2013-12-02 20:55:00,
2013-12-02 14:00:00,63.4,27.9,29.41,West,281,9.0,9.0,26,0.00,,,0.00,Wunderground v.1.13,2013-12-02 21:00:00,
2013-12-02 14:05:00,63.4,26.9,29.41,WNW,302,10.0,14.0,25,0.00,,,0.00,Wunderground v.1.13,2013-12-02 21:05:00,
2013-12-02 14:10:00,63.2,27.7,29.41,NNW,338,11.0,14.0,26,0.00,,,0.00,Wunderground v.1.13,2013-12-02 21:10:00,
2013-12-02 14:15:00,63.2,26.8,29.42,NW,311,10.0,14.0,25,0.00,,,0.00,Wunderground v.1.13,2013-12-02 21:15:00,
2013-12-02 14:20:00,63.1,27.6,29.42,NW,309,12.0,18.0,26,0.00,,,0.00,Wunderground v.1.13,2013-12-02 21:20:00,
2013-12-02 14:25:00,63.1,27.6,29.42,WNW,292,12.0,12.0,26,0.00,,,0.00,Wunderground v.1.13,2013-12-02 21:25:00,
2013-12-02 14:30:00,63.1,27.6,29.41,NNW,333,12.0,12.0,26,0.00,,,0.00,Wunderground v.1.13,2013-12-02 21:30:00,
2013-12-02 14:35:00,63.2,27.7,29.41,NW,305,10.0,16.0,26,0.00,,,0.00,Wunderground v.1.13,2013-12-02 21:35:00,
2013-12-02 14:40:00,63.1,27.6,29.41,NW,311,7.0,7.0,26,0.00,,,0.00,Wunderground v.1.13,2013-12-02 21:40:00,
2013-12-02 14:45:00,62.9,27.5,29.42,WNW,300,7.0,14.0,26,0.00,,,0.00,Wunderground v.1.13,2013-12-02 21:45:00,
2013-12-02 14:50:00,62.6,27.2,29.42,NW,311,8.0,14.0,26,0.00,,,0.00,Wunderground v.1.13,2013-12-02 21:50:00,
2013-12-02 14:55:00,62.3,26.9,29.42,NW,311,8.0,14.0,26,0.00,,,0.00,Wunderground v.1.13,2013-12-02 21:55:00,
2013-12-02 15:00:00,62.1,26.8,29.43,NW,326,8.0,8.0,26,0.00,,,0.00,Wunderground v.1.13,2013-12-02 22:00:00,
2013-12-02 15:05:00,62.0,26.7,29.43,NW,317,8.0,14.0,26,0.00,,,0.00,Wunderground v.1.13,2013-12-02 22:05:00,
2013-12-02 15:10:00,61.6,27.3,29.43,NW,312,5.0,5.0,27,0.00,,,0.00,Wunderground v.1.13,2013-12-02 22:10:00,
2013-12-02 15:15:00,61.2,26.9,29.43,WNW,292,2.0,2.0,27,0.00,,,0.00,Wunderground v.1.13,2013-12-02 22:15:00,
2013-12-02 15:20:00,60.9,26.7,29.43,NW,307,1.0,1.0,27,0.00,,,0.00,Wunderground v.1.13,2013-12-02 22:20:00,
2013-12-02 15:25:00,60.7,26.5,29.43,NW,305,2.0,2.0,27,0.00,,,0.00,Wunderground v.1.13,2013-12-02 22:25:00,
2013-12-02 15:35:00,60.2,26.9,29.43,WNW,299,4.0,4.0,28,0.00,,,0.00,Wunderground v.1.13,2013-12-02 22:35:00,
2013-12-02 15:40:00,60.1,26.9,29.43,WNW,291,3.0,3.0,28,0.00,,,0.00,Wunderground v.1.13,2013-12-02 22:40:00,
2013-12-02 15:45:00,59.8,25.7,29.43,WNW,301,2.0,2.0,27,0.00,,,0.00,Wunderground v.1.13,2013-12-02 22:45:00,
2013-12-02 15:50:00,59.5,26.3,29.43,NW,306,2.0,2.0,28,0.00,,,0.00,Wunderground v.1.13,2013-12-02 22:50:00,
2013-12-02 15:55:00,58.9,26.7,29.43,NW,304,1.0,1.0,29,0.00,,,0.00,Wunderground v.1.13,2013-12-02 22:55:00,
2013-12-02 16:00:00,58.3,26.1,29.43,NW,313,0.0,14.0,29,0.00,,,0.00,Wunderground v.1.13,2013-12-02 23:00:00,
2013-12-02 16:05:00,57.6,26.4,29.43,NW,314,0.0,14.0,30,0.00,,,0.00,Wunderground v.1.13,2013-12-02 23:05:00,
2013-12-02 16:10:00,57.0,26.6,29.43,NW,315,0.0,14.0,31,0.00,,,0.00,Wunderground v.1.13,2013-12-02 23:10:00,
2013-12-02 16:15:00,56.5,27.0,29.43,NW,305,0.0,14.0,32,0.00,,,0.00,Wunderground v.1.13,2013-12-02 23:15:00,
2013-12-02 16:20:00,56.2,26.7,29.43,NW,307,0.0,14.0,32,0.00,,,0.00,Wunderground v.1.13,2013-12-02 23:20:00,
2013-12-02 16:25:00,55.7,27.0,29.43,NW,306,0.0,14.0,33,0.00,,,0.00,Wunderground v.1.13,2013-12-02 23:25:00,
2013-12-02 16:30:00,55.6,26.9,29.43,NW,305,0.0,14.0,33,0.00,,,0.00,Wunderground v.1.13,2013-12-02 23:30:00,
2013-12-02 16:35:00,55.4,26.7,29.43,WNW,289,0.0,14.0,33,0.00,,,0.00,Wunderground v.1.13,2013-12-02 23:35:00,
2013-12-02 16:40:00,55.0,27.1,29.43,WNW,289,0.0,14.0,34,0.00,,,0.00,Wunderground v.1.13,2013-12-02 23:40:00,
2013-12-02 16:45:00,54.4,27.3,29.43,NW,313,0.0,14.0,35,0.00,,,0.00,Wunderground v.1.13,2013-12-02 23:45:00,
2013-12-02 16:50:00,54.1,27.0,29.43,NW,317,0.0,14.0,35,0.00,,,0.00,Wunderground v.1.13,2013-12-02 23:50:00,
2013-12-02 16:54:00,53.8,26.8,29.43,NW,316,0.0,14.0,35,0.00,,,0.00,Wunderground v.1.13,2013-12-02 23:54:00,
2013-12-02 16:59:00,53.5,27.2,29.43,NW,315,0.0,14.0,36,0.00,,,0.00,Wunderground v.1.13,2013-12-02 23:59:00,
2013-12-02 17:04:00,53.2,26.9,29.42,NW,315,0.0,14.0,36,0.00,,,0.00,Wunderground v.1.13,2013-12-03 00:04:00,
2013-12-02 17:10:00,52.3,27.4,29.42,NW,315,0.0,14.0,38,0.00,,,0.00,Wunderground v.1.13,2013-12-03 00:10:00,
2013-12-02 17:15:00,51.3,27.2,29.42,NW,315,0.0,14.0,39,0.00,,,0.00,Wunderground v.1.13,2013-12-03 00:15:00,
2013-12-02 17:20:00,50.4,27.0,29.42,NW,315,0.0,14.0,40,0.00,,,0.00,Wunderground v.1.13,2013-12-03 00:20:00,
2013-12-02 17:25:00,49.8,27.0,29.42,NW,315,0.0,14.0,41,0.00,,,0.00,Wunderground v.1.13,2013-12-03 00:25:00,
2013-12-02 17:30:00,49.1,27.0,29.43,NW,315,0.0,14.0,42,0.00,,,0.00,Wunderground v.1.13,2013-12-03 00:30:00,
2013-12-02 17:35:00,48.5,27.0,29.43,NW,315,0.0,14.0,43,0.00,,,0.00,Wunderground v.1.13,2013-12-03 00:35:00,
2013-12-02 17:40:00,47.6,26.7,29.43,NW,315,0.0,14.0,44,0.00,,,0.00,Wunderground v.1.13,2013-12-03 00:40:00,
2013-12-02 17:45:00,46.7,26.5,29.44,NW,315,0.0,14.0,45,0.00,,,0.00,Wunderground v.1.13,2013-12-03 00:45:00,
2013-12-02 17:50:00,46.0,26.9,29.44,NW,315,0.0,14.0,47,0.00,,,0.00,Wunderground v.1.13,2013-12-03 00:50:00,
2013-12-02 17:55:00,45.2,26.7,29.44,NW,315,0.0,14.0,48,0.00,,,0.00,Wunderground v.1.13,2013-12-03 00:55:00,
2013-12-02 18:00:00,44.6,26.6,29.43,NW,315,0.0,14.0,49,0.00,,,0.00,Wunderground v.1.13,2013-12-03 01:00:00,
2013-12-02 18:05:00,44.2,26.7,29.43,NW,315,0.0,14.0,50,0.00,,,0.00,Wunderground v.1.13,2013-12-03 01:05:00,
2013-12-02 18:10:00,44.1,27.1,29.43,NW,315,0.0,14.0,51,0.00,,,0.00,Wunderground v.1.13,2013-12-03 01:10:00,
2013-12-02 18:15:00,43.9,26.9,29.43,NW,315,0.0,14.0,51,0.00,,,0.00,Wunderground v.1.13,2013-12-03 01:15:00,
2013-12-02 18:20:00,44.1,27.1,29.43,NW,315,0.0,14.0,51,0.00,,,0.00,Wunderground v.1.13,2013-12-03 01:20:00,
2013-12-02 18:25:00,44.5,27.0,29.43,NW,315,0.0,14.0,50,0.00,,,0.00,Wunderground v.1.13,2013-12-03 01:25:00,
2013-12-02 18:30:00,44.5,27.0,29.43,NW,315,0.0,14.0,50,0.00,,,0.00,Wunderground v.1.13,2013-12-03 01:30:00,
2013-12-02 18:35:00,43.9,26.9,29.43,NW,315,0.0,14.0,51,0.00,,,0.00,Wunderground v.1.13,2013-12-03 01:35:00,
2013-12-02 18:40:00,43.2,26.7,29.43,NW,315,0.0,14.0,52,0.00,,,0.00,Wunderground v.1.13,2013-12-03 01:40:00,
2013-12-02 18:44:00,42.8,26.8,29.43,NW,315,0.0,14.0,53,0.00,,,0.00,Wunderground v.1.13,2013-12-03 01:44:00,
2013-12-02 18:50:00,42.1,26.6,29.43,NW,315,0.0,14.0,54,0.00,,,0.00,Wunderground v.1.13,2013-12-03 01:50:00,
2013-12-02 18:55:00,41.5,26.5,29.43,NW,315,0.0,14.0,55,0.00,,,0.00,Wunderground v.1.13,2013-12-03 01:55:00,
2013-12-02 19:00:00,40.9,26.4,29.43,NW,315,0.0,14.0,56,0.00,,,0.00,Wunderground v.1.13,2013-12-03 02:00:00,
2013-12-02 19:05:00,40.6,26.5,29.43,NW,315,0.0,14.0,57,0.00,,,0.00,Wunderground v.1.13,2013-12-03 02:05:00,
2013-12-02 19:10:00,40.6,26.5,29.43,NW,315,0.0,14.0,57,0.00,,,0.00,Wunderground v.1.13,2013-12-03 02:10:00,
2013-12-02 19:15:00,40.8,26.7,29.43,NW,315,0.0,14.0,57,0.00,,,0.00,Wunderground v.1.13,2013-12-03 02:15:00,
2013-12-02 19:20:00,40.9,26.8,29.43,NW,321,0.0,14.0,57,0.00,,,0.00,Wunderground v.1.13,2013-12-03 02:20:00,
2013-12-02 19:25:00,41.1,27.0,29.43,NW,321,0.0,14.0,57,0.00,,,0.00,Wunderground v.1.13,2013-12-03 02:25:00,
2013-12-02 19:30:00,40.9,26.8,29.43,NW,321,0.0,14.0,57,0.00,,,0.00,Wunderground v.1.13,2013-12-03 02:30:00,
2013-12-02 19:35:00,40.8,26.7,29.43,NW,321,0.0,14.0,57,0.00,,,0.00,Wunderground v.1.13,2013-12-03 02:35:00,
2013-12-02 19:40:00,40.5,26.9,29.43,NW,321,0.0,14.0,58,0.00,,,0.00,Wunderground v.1.13,2013-12-03 02:40:00,
2013-12-02 19:45:00,40.2,27.0,29.43,NW,321,0.0,14.0,59,0.00,,,0.00,Wunderground v.1.13,2013-12-03 02:45:00,
2013-12-02 19:50:00,40.1,26.9,29.43,NW,321,0.0,14.0,59,0.00,,,0.00,Wunderground v.1.13,2013-12-03 02:50:00,
2013-12-02 19:55:00,39.9,27.1,29.43,NW,321,0.0,14.0,60,0.00,,,0.00,Wunderground v.1.13,2013-12-03 02:55:00,
2013-12-02 20:00:00,39.9,27.1,29.43,NW,321,0.0,14.0,60,0.00,,,0.00,Wunderground v.1.13,2013-12-03 03:00:00,
2013-12-02 20:10:00,40.1,27.3,29.43,NW,321,0.0,14.0,60,0.00,,,0.00,Wunderground v.1.13,2013-12-03 03:10:00,
2013-12-02 20:15:00,40.3,27.5,29.43,NW,321,0.0,14.0,60,0.00,,,0.00,Wunderground v.1.13,2013-12-03 03:15:00,
2013-12-02 20:20:00,40.9,27.2,29.43,NW,321,0.0,14.0,58,0.00,,,0.00,Wunderground v.1.13,2013-12-03 03:20:00,
2013-12-02 20:25:00,41.8,27.2,29.43,WNW,288,0.0,14.0,56,0.00,,,0.00,Wunderground v.1.13,2013-12-03 03:25:00,
2013-12-02 20:30:00,42.2,27.6,29.43,WNW,288,0.0,14.0,56,0.00,,,0.00,Wunderground v.1.13,2013-12-03 03:30:00,
2013-12-02 20:35:00,42.5,27.5,29.43,WNW,288,0.0,14.0,55,0.00,,,0.00,Wunderground v.1.13,2013-12-03 03:35:00,
2013-12-02 20:40:00,42.5,27.5,29.43,WNW,288,0.0,14.0,55,0.00,,,0.00,Wunderground v.1.13,2013-12-03 03:40:00,
2013-12-02 20:45:00,42.3,27.3,29.42,WNW,288,0.0,14.0,55,0.00,,,0.00,Wunderground v.1.13,2013-12-03 03:45:00,
2013-12-02 20:50:00,42.2,27.6,29.42,WNW,288,0.0,14.0,56,0.00,,,0.00,Wunderground v.1.13,2013-12-03 03:50:00,
2013-12-02 20:55:00,41.9,27.8,29.42,WNW,288,0.0,14.0,57,0.00,,,0.00,Wunderground v.1.13,2013-12-03 03:55:00,
2013-12-02 21:00:00,41.6,27.5,29.43,WNW,288,0.0,14.0,57,0.00,,,0.00,Wunderground v.1.13,2013-12-03 04:00:00,
2013-12-02 21:05:00,41.3,27.6,29.43,WNW,288,0.0,14.0,58,0.00,,,0.00,Wunderground v.1.13,2013-12-03 04:05:00,
2013-12-02 21:10:00,41.2,27.5,29.43,WNW,288,0.0,14.0,58,0.00,,,0.00,Wunderground v.1.13,2013-12-03 04:10:00,
2013-12-02 21:15:00,41.2,27.5,29.43,WNW,288,0.0,14.0,58,0.00,,,0.00,Wunderground v.1.13,2013-12-03 04:15:00,
2013-12-02 21:19:00,41.1,27.9,29.43,WNW,288,0.0,14.0,59,0.00,,,0.00,Wunderground v.1.13,2013-12-03 04:19:00,
2013-12-02 21:25:00,40.8,27.6,29.43,WNW,288,0.0,14.0,59,0.00,,,0.00,Wunderground v.1.13,2013-12-03 04:25:00,
2013-12-02 21:30:00,40.5,27.7,29.42,WNW,288,0.0,14.0,60,0.00,,,0.00,Wunderground v.1.13,2013-12-03 04:30:00,
2013-12-02 21:35:00,40.3,27.9,29.42,WNW,288,0.0,14.0,61,0.00,,,0.00,Wunderground v.1.13,2013-12-03 04:35:00,
2013-12-02 21:40:00,40.2,27.8,29.42,WNW,288,0.0,14.0,61,0.00,,,0.00,Wunderground v.1.13,2013-12-03 04:40:00,
2013-12-02 21:45:00,40.1,28.1,29.42,WNW,288,0.0,14.0,62,0.00,,,0.00,Wunderground v.1.13,2013-12-03 04:45:00,
2013-12-02 21:49:00,40.1,28.1,29.42,WNW,288,0.0,14.0,62,0.00,,,0.00,Wunderground v.1.13,2013-12-03 04:49:00,
2013-12-02 21:54:00,40.1,28.1,29.42,WNW,288,0.0,14.0,62,0.00,,,0.00,Wunderground v.1.13,2013-12-03 04:54:00,
2013-12-02 21:59:00,39.9,28.3,29.42,WNW,288,0.0,14.0,63,0.00,,,0.00,Wunderground v.1.13,2013-12-03 04:59:00,
2013-12-02 22:04:00,39.9,28.3,29.42,WNW,288,0.0,14.0,63,0.00,,,0.00,Wunderground v.1.13,2013-12-03 05:04:00,
2013-12-02 22:09:00,39.9,28.3,29.42,WNW,288,0.0,14.0,63,0.00,,,0.00,Wunderground v.1.13,2013-12-03 05:09:00,
2013-12-02 22:14:00,40.1,28.5,29.42,WNW,288,0.0,14.0,63,0.00,,,0.00,Wunderground v.1.13,2013-12-03 05:14:00,
2013-12-02 22:19:00,40.1,28.5,29.42,WNW,288,0.0,14.0,63,0.00,,,0.00,Wunderground v.1.13,2013-12-03 05:19:00,
2013-12-02 22:24:00,40.1,28.9,29.42,WNW,288,0.0,14.0,64,0.00,,,0.00,Wunderground v.1.13,2013-12-03 05:24:00,
2013-12-02 22:30:00,40.1,28.9,29.42,WNW,288,0.0,14.0,64,0.00,,,0.00,Wunderground v.1.13,2013-12-03 05:30:00,
2013-12-02 22:35:00,40.2,28.6,29.42,WNW,288,0.0,14.0,63,0.00,,,0.00,Wunderground v.1.13,2013-12-03 05:35:00,
2013-12-02 22:40:00,40.5,28.9,29.42,WNW,288,0.0,14.0,63,0.00,,,0.00,Wunderground v.1.13,2013-12-03 05:40:00,
2013-12-02 22:45:00,40.6,28.6,29.43,WNW,288,0.0,14.0,62,0.00,,,0.00,Wunderground v.1.13,2013-12-03 05:45:00,
2013-12-02 22:50:00,41.1,28.7,29.43,WNW,288,0.0,14.0,61,0.00,,,0.00,Wunderground v.1.13,2013-12-03 05:50:00,
2013-12-02 22:54:00,41.5,28.6,29.43,West,279,0.0,14.0,60,0.00,,,0.00,Wunderground v.1.13,2013-12-03 05:54:00,
2013-12-02 23:00:00,41.6,28.7,29.43,West,279,0.0,14.0,60,0.00,,,0.00,Wunderground v.1.13,2013-12-03 06:00:00,
2013-12-02 23:05:00,41.9,28.6,29.43,West,279,0.0,14.0,59,0.00,,,0.00,Wunderground v.1.13,2013-12-03 06:05:00,
2013-12-02 23:10:00,42.2,28.5,29.43,West,263,0.0,14.0,58,0.00,,,0.00,Wunderground v.1.13,2013-12-03 06:10:00,
2013-12-02 23:15:00,42.5,28.3,29.44,West,268,0.0,14.0,57,0.00,,,0.00,Wunderground v.1.13,2013-12-03 06:15:00,
2013-12-02 23:20:00,43.1,28.9,29.44,West,268,0.0,14.0,57,0.00,,,0.00,Wunderground v.1.13,2013-12-03 06:20:00,
2013-12-02 23:30:00,44.1,28.9,29.45,WNW,299,1.0,16.0,55,0.00,,,0.00,Wunderground v.1.13,2013-12-03 06:30:00,
2013-12-02 23:35:00,46.5,28.8,29.45,WSW,246,5.0,14.0,50,0.00,,,0.00,Wunderground v.1.13,2013-12-03 06:35:00,
2013-12-02 23:40:00,46.8,29.1,29.45,WSW,258,6.0,14.0,50,0.00,,,0.00,Wunderground v.1.13,2013-12-03 06:40:00,
2013-12-02 23:45:00,48.8,28.4,29.44,WNW,286,4.0,4.0,45,0.00,,,0.00,Wunderground v.1.13,2013-12-03 06:45:00,
2013-12-02 23:50:00,50.4,29.3,29.44,SW,236,4.0,4.0,44,0.00,,,0.00,Wunderground v.1.13,2013-12-03 06:50:00,
2013-12-02 23:55:00,54.2,27.8,29.44,West,265,7.0,7.0,36,0.00,,,0.00,Wunderground v.1.13,2013-12-03 06:55:00,